Content
SEND FEEDBACK

Daily
Averages
Monthly
Summary
Czech Republic

CESKE BUDEJOVICE, CZECH REPUBLIC


Home > Europe > Czech Republic
Elevation: 1391 feet     Latitude: 48 56N     Longitude: 014 27E

WEATHER
 
SELECT A DAY
Number of Records: 289,386;   Date Range: 7/1/96 - 4/21/13
 
SHARE

PRINT THIS DATA

[ ← Previous Day ]
WEATHER ALMANAC - MARCH 23, 2013
[ Next Day → ]
[ °C ]   °F
Weather ElementAverageHighLow
Temperature31.2 °F36 °F (4:00 pm)28.4 °F (12:50 am)
Dewpoint19.6 °F23 °F (3:50 am)15.8 °F (11:50 pm)
Humidity61.1 %75 % (3:50 am)40 % (4:00 pm)
Barometer30.01 in30.08 in (10:00 am)29.95 in (3:20 pm)
Wind Speed13.1 mph17.3 mph (7:50 am)
Weather ElementAverage
Visibility7.7 mi
Wind DirectionE (94.2 °)

Weather ElementTotal
Precipitation---
Heating Degree Days32.8 (Base 65)
Averaged from 55 records on March 23, 2013
WEATHER CONDITIONS BREAKOUT
WIND DIRECTION BREAKOUT
WEATHER BY HOUR - MARCH 23, 2013
[ °C ]   °F
Local TimeTemperatureDewpointHumidityBarometerVisibilityWind DirectionWind SpeedGust SpeedPrecipitationEventsConditions
12:50 AM28.4 °F19.4 °F69 %30.01 in6.2 miENE (70°)10.4 mphPartly Cloudy
1:00 AM29.0 °F19.0 °F55 %30.07 in22.0 miENE (70°)11.2 mph
1:20 AM28.4 °F19.4 °F69 %30.01 in6.2 miENE (70°)9.2 mphScattered Clouds
1:50 AM28.4 °F19.4 °F69 %30.01 in6.2 miENE (70°)10.4 mphMostly Cloudy
2:20 AM28.4 °F19.4 °F69 %30.01 in6.2 miEast (90°)8.1 mphOvercast
2:50 AM28.4 °F21.2 °F74 %30.01 in6.2 miEast (90°)9.2 mphMostly Cloudy
3:20 AM28.4 °F21.2 °F74 %29.98 in6.2 miEast (80°)9.2 mphMostly Cloudy
3:50 AM30.2 °F23.0 °F75 %29.98 in6.2 miEast (90°)10.4 mphMostly Cloudy
4:00 AM29.0 °F22.0 °F66 %30.06 in12.0 miEast (90°)11.2 mphPartly Cloudy
4:20 AM30.2 °F23.0 °F75 %29.98 in6.2 miEast (90°)10.4 mphMostly Cloudy
4:50 AM30.2 °F23.0 °F75 %29.98 in6.2 miEast (90°)10.4 mphMostly Cloudy
5:20 AM30.2 °F21.2 °F69 %29.98 in6.2 miEast (100°)12.7 mphMostly Cloudy
5:50 AM30.2 °F21.2 °F69 %30.01 in6.2 miEast (100°)12.7 mphMostly Cloudy
6:20 AM30.2 °F19.4 °F64 %30.01 in6.2 miEast (100°)13.8 mphMostly Cloudy
6:50 AM30.2 °F19.4 °F64 %30.01 in6.2 miEast (100°)13.8 mphMostly Cloudy
7:00 AM29.0 °F20.0 °F58 %30.07 in11.0 miEast (100°)13.4 mphOvercast
7:20 AM28.4 °F21.2 °F74 %30.01 in6.2 miEast (100°)16.1 mphMostly Cloudy
7:50 AM28.4 °F19.4 °F69 %30.01 in6.2 miEast (100°)17.3 mphMostly Cloudy
8:20 AM28.4 °F21.2 °F74 %30.01 in6.2 miEast (90°)15.0 mphMostly Cloudy
8:50 AM28.4 °F19.4 °F69 %30.01 in6.2 miEast (90°)16.1 mphMostly Cloudy
9:20 AM30.2 °F19.4 °F64 %30.01 in6.2 miEast (90°)17.3 mphMostly Cloudy
9:50 AM30.2 °F19.4 °F64 %30.01 in6.2 miEast (90°)15.0 mphMostly Cloudy
10:00 AM30.0 °F20.0 °F55 %30.08 in9.0 miEast (90°)15.7 mphScattered Clouds
10:20 AM30.2 °F19.4 °F64 %30.01 in6.2 miEast (100°)16.1 mphMostly Cloudy
10:50 AM30.2 °F19.4 °F64 %30.01 in6.2 miEast (100°)16.1 mphMostly Cloudy
11:20 AM30.2 °F19.4 °F64 %30.01 in6.2 miEast (100°)15.0 mphMostly Cloudy
11:50 AM32.0 °F19.4 °F60 %30.01 in6.2 miESE (110°)13.8 mphMostly Cloudy
12:20 PM32.0 °F19.4 °F60 %30.01 in6.2 miESE (110°)15.0 mphMostly Cloudy
12:50 PM32.0 °F19.4 °F60 %30.01 in6.2 miESE (120°)13.8 mphMostly Cloudy
1:00 PM32.0 °F19.0 °F46 %30.07 in12.0 miESE (120°)13.4 mphScattered Clouds
1:20 PM32.0 °F19.4 °F60 %29.98 in6.2 miEast (100°)16.1 mphMostly Cloudy
1:50 PM33.8 °F19.4 °F56 %29.98 in6.2 miEast (100°)12.7 mphMostly Cloudy
2:20 PM33.8 °F19.4 °F56 %29.98 in6.2 miESE (110°)12.7 mphMostly Cloudy
2:50 PM35.6 °F19.4 °F52 %29.98 in6.2 miEast (100°)10.4 mphMostly Cloudy
3:20 PM35.6 °F19.4 °F52 %29.95 in6.2 miEast (100°)13.8 mphMostly Cloudy
3:50 PM35.6 °F21.2 °F56 %29.98 in6.2 miESE (110°)13.8 mphMostly Cloudy
4:00 PM36.0 °F20.0 °F40 %30.03 in19.0 miESE (110°)13.4 mphScattered Clouds
4:20 PM35.6 °F21.2 °F56 %29.98 inESE (110°)12.7 mphClear
4:50 PM33.8 °F19.4 °F56 %29.98 inESE (110°)13.8 mphClear
5:20 PM33.8 °F21.2 °F60 %29.98 inESE (110°)12.7 mphClear
5:50 PM33.8 °F21.2 °F60 %29.98 inESE (110°)12.7 mphClear
6:20 PM33.8 °F19.4 °F56 %29.98 inESE (110°)11.5 mphClear
6:50 PM33.8 °F19.4 °F56 %30.01 inEast (90°)12.7 mphClear
7:00 PM33.0 °F19.0 °F44 %30.05 in16.0 miEast (90°)13.4 mphMostly Cloudy
7:20 PM33.8 °F19.4 °F56 %30.01 inEast (90°)10.4 mphClear
7:50 PM33.8 °F17.6 °F52 %30.01 inEast (90°)12.7 mphClear
8:20 PM32.0 °F19.4 °F60 %30.01 inEast (80°)11.5 mphClear
8:50 PM32.0 °F17.6 °F55 %30.01 in6.2 miEast (80°)13.8 mphMostly Cloudy
9:20 PM32.0 °F17.6 °F55 %30.01 in6.2 miENE (70°)15.0 mphMostly Cloudy
9:50 PM30.2 °F17.6 °F60 %30.01 in6.2 miENE (70°)13.8 mphMostly Cloudy
10:00 PM31.0 °F17.0 °F43 %30.07 in16.0 miENE (70°)13.4 mphOvercast
10:20 PM30.2 °F17.6 °F60 %30.01 in6.2 miENE (70°)16.1 mphMostly Cloudy
10:50 PM30.2 °F17.6 °F60 %30.01 in6.2 miEast (80°)12.7 mphMostly Cloudy
11:20 PM30.2 °F17.6 °F60 %30.01 in6.2 miEast (100°)12.7 mphSnowLight Snow Showers
11:50 PM28.4 °F15.8 °F59 %30.01 in6.2 miESE (110°)15.0 mphSnowLight Snow
Hourly data recorded from LOLF, located miles away from Ceske Budejovice, Czech Republic







STORIES FROM OUR PARTNERS